SWA3627 KOMA-KDAL

Flight info

Callsign SWA3627
Flight time 1h 27m
Altitude 37000
Route PWE ULNAZ HOTAP HITUG HIBIL3
Aircraft B737/M-SDE2E3FGHIRWXY/LB1

Departure

Time 2026-04-23 18:35
Airport Eppley Airfield (KOMA)

Arrival

Time 2026-04-23 20:03
Airport Dallas Love Field (KDAL)
Time Latitude Longitude Altitude Speed Heading
2026-04-23 18:03 41.29779 -95.89774 1002 ft 0 kts 264°
2026-04-23 18:26 41.29779 -95.89769 984 ft 2 kts 264°
2026-04-23 18:26 41.29781 -95.89747 992 ft 2 kts 264°
2026-04-23 18:26 41.29783 -95.89725 993 ft 2 kts 268°
2026-04-23 18:27 41.29781 -95.89704 993 ft 2 kts 316°
2026-04-23 18:27 41.29772 -95.89697 988 ft 1 kts 348°
2026-04-23 18:29 41.29803 -95.89692 986 ft 7 kts 10°
2026-04-23 18:30 41.29859 -95.89689 987 ft 9 kts 360°
2026-04-23 18:30 41.29953 -95.89688 985 ft 15 kts
2026-04-23 18:30 41.30034 -95.89611 991 ft 15 kts 18°
2026-04-23 18:30 41.30141 -95.89615 987 ft 16 kts 340°
2026-04-23 18:31 41.30230 -95.89693 990 ft 16 kts 324°
2026-04-23 18:31 41.30340 -95.89798 991 ft 20 kts 324°
2026-04-23 18:31 41.30460 -95.89910 990 ft 22 kts 329°
2026-04-23 18:31 41.30580 -95.90026 988 ft 21 kts 324°
2026-04-23 18:32 41.30697 -95.90138 985 ft 20 kts 324°
2026-04-23 18:32 41.30811 -95.90247 985 ft 20 kts 324°
2026-04-23 18:32 41.30921 -95.90351 989 ft 19 kts 326°
2026-04-23 18:32 41.31028 -95.90452 985 ft 19 kts 324°
2026-04-23 18:33 41.31130 -95.90549 990 ft 18 kts 324°
2026-04-23 18:33 41.31229 -95.90643 990 ft 17 kts 324°
2026-04-23 18:33 41.31325 -95.90687 985 ft 14 kts 25°
2026-04-23 18:33 41.31363 -95.90590 990 ft 10 kts 126°
2026-04-23 18:34 41.31304 -95.90534 992 ft 14 kts 144°
2026-04-23 18:34 41.31129 -95.90368 989 ft 15 kts 148°
2026-04-23 18:34 41.31122 -95.90363 987 ft 0 kts 146°
2026-04-23 18:34 41.31122 -95.90362 987 ft 1 kts 145°
2026-04-23 18:35 41.30980 -95.90227 991 ft 60 kts 144°
2026-04-23 18:35 41.30450 -95.89722 989 ft 124 kts 145°
2026-04-23 18:35 41.29646 -95.88935 1278 ft 151 kts 146°
2026-04-23 18:35 41.28816 -95.88108 2079 ft 150 kts 155°
2026-04-23 18:36 41.27887 -95.87367 2448 ft 167 kts 158°
2026-04-23 18:36 41.26775 -95.86590 2733 ft 194 kts 158°
2026-04-23 18:36 41.25531 -95.85696 3101 ft 216 kts 158°
2026-04-23 18:36 41.24101 -95.84695 3408 ft 245 kts 161°
2026-04-23 18:37 41.22424 -95.84146 4064 ft 249 kts 182°
2026-04-23 18:37 41.20744 -95.84566 5016 ft 246 kts 198°
2026-04-23 18:37 41.19098 -95.85249 5949 ft 251 kts 199°
2026-04-23 18:37 41.17417 -95.85970 6800 ft 254 kts 200°
2026-04-23 18:38 41.15756 -95.86657 7985 ft 247 kts 199°
2026-04-23 18:38 41.14101 -95.87304 8827 ft 258 kts 199°
2026-04-23 18:38 41.12359 -95.87990 9646 ft 265 kts 198°
2026-04-23 18:38 41.10572 -95.88678 10412 ft 272 kts 198°
2026-04-23 18:39 41.08662 -95.89403 10662 ft 299 kts 198°
2026-04-23 18:39 41.06576 -95.90180 10953 ft 320 kts 197°
2026-04-23 18:39 41.04405 -95.90974 11683 ft 326 kts 197°
2026-04-23 18:39 41.02205 -95.91769 12533 ft 329 kts 197°
2026-04-23 18:40 40.99991 -95.92563 13418 ft 330 kts 197°
2026-04-23 18:40 40.97756 -95.93360 14174 ft 334 kts 197°
2026-04-23 18:40 40.95498 -95.94164 14923 ft 338 kts 197°
2026-04-23 18:40 40.93209 -95.94977 15699 ft 342 kts 197°
2026-04-23 18:41 40.90900 -95.95796 16483 ft 346 kts 197°
2026-04-23 18:41 40.88560 -95.96625 17246 ft 350 kts 197°
2026-04-23 18:41 40.86222 -95.97453 17980 ft 354 kts 198°
2026-04-23 18:41 40.83819 -95.98303 18677 ft 358 kts 198°
2026-04-23 18:42 40.81400 -95.99158 19357 ft 361 kts 198°
2026-04-23 18:42 40.78969 -96.00015 20065 ft 363 kts 198°
2026-04-23 18:42 40.76514 -96.00881 20712 ft 366 kts 198°
2026-04-23 18:42 40.74070 -96.01743 21358 ft 370 kts 198°
2026-04-23 18:43 40.71573 -96.02623 22015 ft 373 kts 198°
2026-04-23 18:43 40.69048 -96.03512 22691 ft 376 kts 198°
2026-04-23 18:43 40.66510 -96.04404 23302 ft 380 kts 198°
2026-04-23 18:43 40.63940 -96.05308 23797 ft 383 kts 198°
2026-04-23 18:44 40.61351 -96.06217 24278 ft 386 kts 198°
2026-04-23 18:44 40.58745 -96.07131 24767 ft 389 kts 198°
2026-04-23 18:44 40.56112 -96.08054 25246 ft 392 kts 198°
2026-04-23 18:44 40.53462 -96.08982 25699 ft 396 kts 198°
2026-04-23 18:45 40.50786 -96.09918 26142 ft 399 kts 198°
2026-04-23 18:45 40.48088 -96.10862 26584 ft 402 kts 198°
2026-04-23 18:45 40.45374 -96.11810 27014 ft 405 kts 198°
2026-04-23 18:45 40.42677 -96.12752 27434 ft 408 kts 198°
2026-04-23 18:46 40.39926 -96.13711 27843 ft 410 kts 198°
2026-04-23 18:46 40.37155 -96.14677 28261 ft 413 kts 198°
2026-04-23 18:46 40.34365 -96.15649 28659 ft 416 kts 198°
2026-04-23 18:46 40.31556 -96.16626 29046 ft 419 kts 198°
2026-04-23 18:47 40.28730 -96.17609 29428 ft 421 kts 198°
2026-04-23 18:47 40.25892 -96.18595 29779 ft 424 kts 198°
2026-04-23 18:47 40.23985 -96.19211 29996 ft 426 kts 194°
2026-04-23 18:47 40.21027 -96.19644 30449 ft 429 kts 186°
2026-04-23 18:48 40.17077 -96.19501 31160 ft 429 kts 178°
2026-04-23 18:48 40.14129 -96.18798 31590 ft 433 kts 171°
2026-04-23 18:48 40.11198 -96.17838 31997 ft 433 kts 171°
2026-04-23 18:48 40.09227 -96.17166 32258 ft 433 kts 170°
2026-04-23 18:49 40.06315 -96.16163 32683 ft 432 kts 170°
2026-04-23 18:49 40.03450 -96.15181 33084 ft 431 kts 170°
2026-04-23 18:49 40.00551 -96.14200 33463 ft 430 kts 171°
2026-04-23 18:49 39.97654 -96.13230 33809 ft 429 kts 171°
2026-04-23 18:50 39.95733 -96.12592 34004 ft 429 kts 171°
2026-04-23 18:50 39.91852 -96.11310 34342 ft 430 kts 171°
2026-04-23 18:50 39.88949 -96.10355 34646 ft 430 kts 171°
2026-04-23 18:50 39.86046 -96.09400 34939 ft 430 kts 171°
2026-04-23 18:51 39.83143 -96.08447 35209 ft 430 kts 171°
2026-04-23 18:51 39.80235 -96.07492 35469 ft 430 kts 171°
2026-04-23 18:51 39.77371 -96.06553 35739 ft 430 kts 171°
2026-04-23 18:51 39.74466 -96.05601 36015 ft 430 kts 171°
2026-04-23 18:52 39.71565 -96.04651 36254 ft 431 kts 171°
2026-04-23 18:52 39.68648 -96.03697 36533 ft 431 kts 171°
2026-04-23 18:52 39.65736 -96.02745 36632 ft 432 kts 171°
2026-04-23 18:53 39.59891 -96.00836 36638 ft 432 kts 171°
2026-04-23 18:53 39.54078 -95.98940 36634 ft 430 kts 171°
2026-04-23 18:54 39.48276 -95.97051 36642 ft 429 kts 171°
2026-04-23 18:54 39.42528 -95.95185 36659 ft 428 kts 171°
2026-04-23 18:55 39.36744 -95.93310 36651 ft 429 kts 171°
2026-04-23 18:55 39.30948 -95.91433 36664 ft 429 kts 171°
2026-04-23 18:56 39.25147 -95.89559 36673 ft 431 kts 171°
2026-04-23 18:56 39.19327 -95.87680 36685 ft 432 kts 171°
2026-04-23 18:57 39.13482 -95.85797 36687 ft 434 kts 171°
2026-04-23 18:57 39.07585 -95.84359 36702 ft 430 kts 178°
2026-04-23 18:58 39.01627 -95.83501 36681 ft 431 kts 179°
2026-04-23 18:58 38.95655 -95.82662 36674 ft 432 kts 179°
2026-04-23 18:59 38.89718 -95.81798 36687 ft 432 kts 178°
2026-04-23 18:59 38.83732 -95.80910 36680 ft 432 kts 178°
2026-04-23 19:00 38.77756 -95.80020 36684 ft 432 kts 178°
2026-04-23 19:00 38.71780 -95.79132 36677 ft 432 kts 178°
2026-04-23 19:01 38.65806 -95.78246 36681 ft 431 kts 178°
2026-04-23 19:01 38.59843 -95.77364 36698 ft 431 kts 178°
2026-04-23 19:02 38.53879 -95.76483 36707 ft 431 kts 178°
2026-04-23 19:02 38.47948 -95.75609 36714 ft 432 kts 178°
2026-04-23 19:03 38.41973 -95.74730 36717 ft 432 kts 178°
2026-04-23 19:03 38.35986 -95.73850 36726 ft 434 kts 178°
2026-04-23 19:04 38.29971 -95.72968 36722 ft 436 kts 178°
2026-04-23 19:04 38.23931 -95.72084 36718 ft 437 kts 178°
2026-04-23 19:05 38.17876 -95.71198 36720 ft 438 kts 178°
2026-04-23 19:05 38.11854 -95.70318 36713 ft 439 kts 178°
2026-04-23 19:06 38.05792 -95.69434 36711 ft 439 kts 178°
2026-04-23 19:06 37.99727 -95.68552 36712 ft 438 kts 178°
2026-04-23 19:07 37.93663 -95.67671 36720 ft 438 kts 178°
2026-04-23 19:07 37.87609 -95.66793 36726 ft 438 kts 178°
2026-04-23 19:08 37.81554 -95.65916 36738 ft 438 kts 178°
2026-04-23 19:08 37.75497 -95.65041 36745 ft 438 kts 178°
2026-04-23 19:09 37.69476 -95.64172 36751 ft 439 kts 178°
2026-04-23 19:09 37.63405 -95.63297 36749 ft 439 kts 178°
2026-04-23 19:10 37.57327 -95.62423 36745 ft 440 kts 178°
2026-04-23 19:10 37.51237 -95.61548 36747 ft 440 kts 178°
2026-04-23 19:11 37.45127 -95.60790 36765 ft 440 kts 180°
2026-04-23 19:11 37.39026 -95.60341 36766 ft 440 kts 181°
2026-04-23 19:12 37.33937 -95.59992 36765 ft 440 kts 181°
2026-04-23 19:12 37.26810 -95.59460 36765 ft 441 kts 181°
2026-04-23 19:13 37.20677 -95.58978 36760 ft 442 kts 181°
2026-04-23 19:13 37.14520 -95.58488 36758 ft 443 kts 181°
2026-04-23 19:14 37.08400 -95.58003 36755 ft 443 kts 181°
2026-04-23 19:14 37.02233 -95.57516 36759 ft 444 kts 181°
2026-04-23 19:15 36.96058 -95.57029 36764 ft 445 kts 181°
2026-04-23 19:15 36.89878 -95.56542 36763 ft 445 kts 181°
2026-04-23 19:16 36.83685 -95.56055 36781 ft 446 kts 181°
2026-04-23 19:16 36.77493 -95.55569 36789 ft 446 kts 181°
2026-04-23 19:17 36.68200 -95.54841 36796 ft 446 kts 180°
2026-04-23 19:17 36.62039 -95.54360 36801 ft 446 kts 180°
2026-04-23 19:18 36.55844 -95.53876 36803 ft 446 kts 180°
2026-04-23 19:18 36.49642 -95.53393 36804 ft 446 kts 180°
2026-04-23 19:19 36.40344 -95.52670 36803 ft 446 kts 180°
2026-04-23 19:20 36.31037 -95.51948 36803 ft 447 kts 180°
2026-04-23 19:20 36.24827 -95.51468 36804 ft 447 kts 180°
2026-04-23 19:21 36.15533 -95.50750 36805 ft 448 kts 180°
2026-04-23 19:22 36.09306 -95.50269 36817 ft 448 kts 180°
2026-04-23 19:22 35.99944 -95.49549 36830 ft 449 kts 180°
2026-04-23 19:23 35.93729 -95.49071 36846 ft 450 kts 180°
2026-04-23 19:24 35.84348 -95.47743 36860 ft 454 kts 174°
2026-04-23 19:24 35.74990 -95.45778 36862 ft 455 kts 174°
2026-04-23 19:25 35.62479 -95.43326 36860 ft 455 kts 175°
2026-04-23 19:26 35.53117 -95.41534 36868 ft 456 kts 175°
2026-04-23 19:27 35.37418 -95.38530 36869 ft 455 kts 175°
2026-04-23 19:28 35.24933 -95.36149 36869 ft 455 kts 175°
2026-04-23 19:29 35.15544 -95.34364 36867 ft 455 kts 175°
2026-04-23 19:30 35.06146 -95.32580 36880 ft 455 kts 175°
2026-04-23 19:31 34.96786 -95.30838 36897 ft 455 kts 176°
2026-04-23 19:31 34.90488 -95.29967 36899 ft 455 kts 178°
2026-04-23 19:32 34.84184 -95.29166 36902 ft 455 kts 178°
2026-04-23 19:32 34.77872 -95.28330 36901 ft 456 kts 178°
2026-04-23 19:33 34.71599 -95.27477 36907 ft 456 kts 178°
2026-04-23 19:33 34.62124 -95.26184 36905 ft 457 kts 178°
2026-04-23 19:34 34.55808 -95.25325 36906 ft 457 kts 178°
2026-04-23 19:35 34.46314 -95.24037 36909 ft 457 kts 178°
2026-04-23 19:35 34.39996 -95.23181 36912 ft 457 kts 178°
2026-04-23 19:36 34.33719 -95.22345 36910 ft 455 kts 181°
2026-04-23 19:36 34.30604 -95.22627 36923 ft 442 kts 198°
2026-04-23 19:36 34.27747 -95.23882 36895 ft 434 kts 213°
2026-04-23 19:37 34.22990 -95.28197 36915 ft 427 kts 224°
2026-04-23 19:37 34.20705 -95.30513 36531 ft 433 kts 224°
2026-04-23 19:37 34.18391 -95.32856 35959 ft 433 kts 224°
2026-04-23 19:37 34.16096 -95.35153 35227 ft 434 kts 223°
2026-04-23 19:38 34.13760 -95.37464 34475 ft 435 kts 223°
2026-04-23 19:38 34.11408 -95.39775 33649 ft 436 kts 223°
2026-04-23 19:38 34.09048 -95.42085 32751 ft 438 kts 223°
2026-04-23 19:38 34.07445 -95.43651 32135 ft 438 kts 222°
2026-04-23 19:39 34.05106 -95.45935 31497 ft 435 kts 222°
2026-04-23 19:39 34.02770 -95.48215 30876 ft 430 kts 222°
2026-04-23 19:39 34.00454 -95.50475 30283 ft 426 kts 222°
2026-04-23 19:39 33.98159 -95.52705 29644 ft 422 kts 221°
2026-04-23 19:40 33.95876 -95.54890 28996 ft 417 kts 221°
2026-04-23 19:40 33.93618 -95.57041 28387 ft 411 kts 221°
2026-04-23 19:40 33.91394 -95.59161 27916 ft 403 kts 221°
2026-04-23 19:40 33.89234 -95.61221 27531 ft 393 kts 221°
2026-04-23 19:41 33.87103 -95.63265 26980 ft 389 kts 222°
2026-04-23 19:41 33.84995 -95.65293 26390 ft 387 kts 222°
2026-04-23 19:41 33.82900 -95.67308 25824 ft 384 kts 222°
2026-04-23 19:41 33.80822 -95.69305 25270 ft 381 kts 222°
2026-04-23 19:42 33.78757 -95.71289 24719 ft 378 kts 222°
2026-04-23 19:42 33.76702 -95.73261 24162 ft 376 kts 222°
2026-04-23 19:42 33.74659 -95.75219 23599 ft 375 kts 222°
2026-04-23 19:42 33.72623 -95.77170 22963 ft 373 kts 222°
2026-04-23 19:43 33.70628 -95.79080 22372 ft 370 kts 222°
2026-04-23 19:43 33.68621 -95.80999 21810 ft 367 kts 222°
2026-04-23 19:43 33.66635 -95.82897 21259 ft 363 kts 222°
2026-04-23 19:43 33.64666 -95.84778 20709 ft 360 kts 222°
2026-04-23 19:44 33.62714 -95.86642 20173 ft 357 kts 222°
2026-04-23 19:44 33.60776 -95.88492 19632 ft 354 kts 222°
2026-04-23 19:44 33.58849 -95.90331 19104 ft 352 kts 222°
2026-04-23 19:44 33.56961 -95.92130 18586 ft 350 kts 222°
2026-04-23 19:45 33.55065 -95.93938 18032 ft 348 kts 222°
2026-04-23 19:45 33.53176 -95.95738 17433 ft 346 kts 222°
2026-04-23 19:45 33.51300 -95.97525 16864 ft 343 kts 221°
2026-04-23 19:45 33.49448 -95.99285 16429 ft 337 kts 221°
2026-04-23 19:46 33.47620 -96.01023 15903 ft 334 kts 221°
2026-04-23 19:46 33.45805 -96.02747 15379 ft 332 kts 221°
2026-04-23 19:46 33.44001 -96.04464 14839 ft 330 kts 221°
2026-04-23 19:46 33.42208 -96.06171 14326 ft 329 kts 220°
2026-04-23 19:47 33.40419 -96.07874 13796 ft 327 kts 220°
2026-04-23 19:47 33.38642 -96.09564 13237 ft 325 kts 220°
2026-04-23 19:47 33.36874 -96.11243 12685 ft 323 kts 220°
2026-04-23 19:47 33.35119 -96.12908 12155 ft 320 kts 220°
2026-04-23 19:48 33.33494 -96.14704 11629 ft 317 kts 230°
2026-04-23 19:48 33.32218 -96.16833 11118 ft 314 kts 240°
2026-04-23 19:48 33.31310 -96.19196 10617 ft 312 kts 246°
2026-04-23 19:48 33.30493 -96.21553 10416 ft 299 kts 246°
2026-04-23 19:49 33.29715 -96.23809 10243 ft 287 kts 246°
2026-04-23 19:49 33.28961 -96.25966 10120 ft 275 kts 246°
2026-04-23 19:49 33.28230 -96.28031 9951 ft 266 kts 246°
2026-04-23 19:49 33.27507 -96.30062 9573 ft 265 kts 245°
2026-04-23 19:50 33.26796 -96.32055 9213 ft 263 kts 245°
2026-04-23 19:50 33.25988 -96.33996 8926 ft 258 kts 235°
2026-04-23 19:50 33.24936 -96.35694 8715 ft 251 kts 230°
2026-04-23 19:50 33.23854 -96.37300 8526 ft 246 kts 230°
2026-04-23 19:51 33.22777 -96.38899 8332 ft 248 kts 230°
2026-04-23 19:51 33.21699 -96.40524 8129 ft 251 kts 230°
2026-04-23 19:51 33.20617 -96.42172 7944 ft 253 kts 230°
2026-04-23 19:51 33.19528 -96.43838 7733 ft 255 kts 230°
2026-04-23 19:52 33.18443 -96.45502 7537 ft 253 kts 230°
2026-04-23 19:52 33.17371 -96.47170 7322 ft 253 kts 231°
2026-04-23 19:52 33.16355 -96.48879 7123 ft 252 kts 233°
2026-04-23 19:52 33.15357 -96.50596 6922 ft 251 kts 233°
2026-04-23 19:53 33.14368 -96.52299 6731 ft 248 kts 233°
2026-04-23 19:53 33.13386 -96.53983 6528 ft 246 kts 232°
2026-04-23 19:53 33.12426 -96.55625 6333 ft 243 kts 232°
2026-04-23 19:53 33.11462 -96.57270 6136 ft 241 kts 232°
2026-04-23 19:54 33.10489 -96.58929 5928 ft 240 kts 231°
2026-04-23 19:54 33.09542 -96.60538 5739 ft 241 kts 231°
2026-04-23 19:54 33.08575 -96.62181 5548 ft 240 kts 232°
2026-04-23 19:54 33.07643 -96.63767 5321 ft 227 kts 231°
2026-04-23 19:55 33.06760 -96.65269 5150 ft 215 kts 231°
2026-04-23 19:55 33.05913 -96.66707 4984 ft 209 kts 231°
2026-04-23 19:55 33.05089 -96.68104 4818 ft 205 kts 230°
2026-04-23 19:55 33.04265 -96.69499 4670 ft 206 kts 231°
2026-04-23 19:56 33.03448 -96.70884 4481 ft 199 kts 230°
2026-04-23 19:56 33.02667 -96.72207 4318 ft 197 kts 230°
2026-04-23 19:56 33.01881 -96.73536 4181 ft 196 kts 231°
2026-04-23 19:56 33.01108 -96.74846 4024 ft 192 kts 230°
2026-04-23 19:57 33.00340 -96.76145 3876 ft 191 kts 230°
2026-04-23 19:57 32.99574 -96.77441 3756 ft 188 kts 230°
2026-04-23 19:57 32.98836 -96.78693 3584 ft 180 kts 230°
2026-04-23 19:57 32.98137 -96.79877 3428 ft 169 kts 230°
2026-04-23 19:58 32.97484 -96.80983 3287 ft 158 kts 230°
2026-04-23 19:58 32.96875 -96.82015 3135 ft 146 kts 229°
2026-04-23 19:58 32.96263 -96.83042 3075 ft 156 kts 230°
2026-04-23 19:58 32.95598 -96.84069 2925 ft 157 kts 226°
2026-04-23 19:59 32.94893 -96.85036 2720 ft 155 kts 224°
2026-04-23 19:59 32.94203 -96.85979 2517 ft 145 kts 224°
2026-04-23 19:59 32.93553 -96.86868 2350 ft 143 kts 223°
2026-04-23 19:59 32.92914 -96.87744 2202 ft 138 kts 223°
2026-04-23 20:00 32.92276 -96.88561 2018 ft 132 kts 219°
2026-04-23 20:00 32.91525 -96.89196 1819 ft 128 kts 201°
2026-04-23 20:00 32.90701 -96.89490 1669 ft 123 kts 188°
2026-04-23 20:00 32.89869 -96.89520 1644 ft 118 kts 179°
2026-04-23 20:01 32.89045 -96.89355 1392 ft 128 kts 155°
2026-04-23 20:01 32.88351 -96.88687 1314 ft 127 kts 139°
2026-04-23 20:01 32.87700 -96.87950 1093 ft 131 kts 141°
2026-04-23 20:01 32.87055 -96.87214 933 ft 126 kts 141°
2026-04-23 20:02 32.86434 -96.86496 757 ft 123 kts 141°
2026-04-23 20:02 32.85811 -96.85766 593 ft 127 kts 142°
2026-04-23 20:02 32.85203 -96.85061 493 ft 110 kts 137°
2026-04-23 20:02 32.84751 -96.84547 487 ft 73 kts 136°
2026-04-23 20:03 32.84533 -96.84293 490 ft 17 kts 136°
2026-04-23 20:03 32.84446 -96.84264 486 ft 13 kts 210°
2026-04-23 20:03 32.84437 -96.84367 484 ft 15 kts 316°
2026-04-23 20:03 32.84511 -96.84453 484 ft 15 kts 316°
2026-04-23 20:04 32.84583 -96.84535 484 ft 14 kts 316°
2026-04-23 20:04 32.84649 -96.84614 475 ft 13 kts 315°
2026-04-23 20:04 32.84715 -96.84690 484 ft 13 kts 316°
2026-04-23 20:04 32.84775 -96.84766 483 ft 13 kts 293°
2026-04-23 20:05 32.84745 -96.84858 479 ft 12 kts 260°
2026-04-23 20:05 32.84743 -96.84955 483 ft 10 kts 263°
2026-04-23 20:05 32.84696 -96.84991 479 ft 9 kts 179°
2026-04-23 20:05 32.84650 -96.84991 481 ft 2 kts 181°
2026-04-23 20:06 32.84645 -96.84991 480 ft 0 kts 181°